[[{"header":{"parameterUnit":"m.s-1","parameterCategory":1,"la1":30.2991,"la2":30.254,"lo1":-89.0895,"lo2":-89.0444,"dy":0.0017,"dx":0.0017,"nx":28,"ny":28,"refTime":"2024-06-21T03:00:00:Z","depth":0,"parameterNumber":2,"parameterNumberName":"U-component_of_WINDS"},"data":[0,0,0,0,0,0,0,0,0,0,0,0,0,0,0,0,0,0,0,0,0,0,0,0,0,0,0,0,0,0,0,0,0,0,0,0,0,0,0,0,0,0,0,0,0,0,0,0,0,0,0,0,0,0,0,0,0,0,-2.2717,-2.2716,0,-2.2659,-2.2658,-2.2657,-2.247,-2.2466,-2.2462,-2.2458,-2.2405,-2.2407,-2.241,0,0,0,0,0,0,0,0,0,0,0,0,0,-2.2671,-2.2672,-2.2717,-2.2716,-2.2715,-2.2659,-2.2658,-2.2657,-2.2471,-2.2466,-2.2461,-2.2456,-2.2404,-2.2407,-2.241,0,0,0,0,0,0,0,0,0,0,0,0,0,-2.266,-2.2673,-2.2717,-2.2615,-2.2605,-2.2659,-2.2658,-2.2657,-2.2472,-2.2466,-2.2459,-2.2453,-2.2403,-2.2407,-2.2411,-2.256,0,0,-2.2422,-2.2424,0,0,0,0,0,0,0,0,-2.2661,-2.2662,-2.2631,-2.2622,-2.2611,-2.2565,-2.2622,-2.2625,-2.2473,-2.2523,-2.2458,-2.245,-2.2464,-2.2462,-2.2465,-2.2557,-2.2555,-2.2422,-2.2425,-2.2426,-2.2427,0,0,0,0,0,0,0,-2.2662,-2.2663,-2.2694,-2.2631,-2.2619,-2.2574,-2.2566,-2.2622,-2.253,-2.2518,-2.2504,-2.25,-2.2457,-2.2462,-2.2463,-2.2554,-2.2422,-2.2426,-2.2428,-2.2429,-2.2764,-2.277,0,0,0,0,0,0,-2.2676,-2.2665,-2.2696,-2.2692,-2.2621,-2.258,-2.257,-2.2586,-2.2528,-2.2513,-2.2505,-2.2491,-2.2459,-2.2459,-2.246,-2.263,-2.2426,-2.243,-2.2432,-2.2758,-2.2766,-2.2773,0,0,0,0,0,0,-2.2676,-2.2681,-2.2698,-2.2675,-2.2673,-2.2587,-2.2607,-2.2589,-2.2593,-2.2518,-2.2502,-2.2527,-2.2454,-2.2455,-2.2535,-2.2626,-2.2431,-2.2435,-2.275,-2.276,-2.2769,-2.2973,0,0,0,0,0,0,-2.2675,-2.2682,-2.2737,-2.2677,-2.2675,-2.2774,-2.2612,-2.2592,-2.2599,-2.258,-2.2534,-2.2521,-2.2449,-2.2531,-2.2539,-2.2627,-2.2438,-2.2741,-2.2754,-2.2766,-2.2957,-2.2988,-2.3015,0,0,0,0,0,-2.2674,-2.2798,-2.274,-2.2745,-2.2742,-2.2779,-2.2778,-2.2692,-2.2607,-2.2662,-2.2614,-2.2522,-2.2614,-2.2541,-2.2549,-2.2639,-2.2735,-2.2751,-2.2765,-2.2945,-2.2982,-2.3014,0,0,0,0,0,0,-2.2873,-2.2788,-2.2724,-2.2831,-2.2814,-2.2748,-2.2814,-2.2734,-2.2742,-2.2725,-2.2618,-2.2609,-2.2705,-2.268,-2.26,-2.278,-2.2659,-2.2677,-2.2793,-2.2828,-2.2856,-2.2861,-2.2441,0,0,0,0,0,-2.2929,-2.2964,-2.2889,-2.2991,-2.2985,-2.2902,-2.2915,-2.2849,-2.2828,-2.282,-2.2777,-2.2762,-2.2786,-2.2806,-2.2825,-2.2952,-2.294,-2.3018,-2.3047,-2.3071,-2.3087,-2.3152,-2.3187,-2.2822,-2.2822,-2.2821,0,0,-2.3046,-2.3004,-2.3033,-2.303,-2.3009,-2.3049,-2.2897,-2.2947,-2.2976,-2.2828,-2.2901,-2.287,-2.2845,-2.2949,-2.2993,-2.2931,-2.3185,-2.309,-2.3109,-2.3113,-2.3171,-2.3206,-2.3237,-2.2832,-2.283,-2.2828,0,0,-2.3279,-2.3251,-2.3332,-2.3313,-2.3281,-2.3224,-2.3244,-2.319,-2.3162,-2.3233,-2.3122,-2.3157,-2.3202,-2.3189,-2.3188,-2.3414,-2.333,-2.3423,-2.3574,-2.3638,-2.3667,-2.3692,-2.3773,-2.3803,-2.344,-2.344,-2.3441,0,-2.3429,-2.3484,-2.3385,-2.3441,-2.3443,-2.3307,-2.339,-2.3377,-2.3355,-2.336,-2.329,-2.3343,-2.3317,-2.3416,-2.3471,-2.3475,-2.3495,-2.3429,-2.367,-2.3694,-2.3716,-2.3792,-2.3823,-2.3452,-2.3451,-2.3449,-2.3448,0,-2.367,-2.3709,-2.3779,-2.3758,-2.3767,-2.3837,-2.375,-2.3772,-2.3705,-2.3656,-2.373,-2.3694,-2.3702,-2.3721,-2.3657,-2.3811,-2.3774,-2.3689,-2.3566,-2.3764,-2.3834,-2.3863,-2.3469,-2.3464,-2.3461,-2.3458,0,0,-2.4029,-2.3949,-2.3977,-2.3965,-2.3919,-2.3949,-2.4012,-2.4018,-2.4039,-2.4028,-2.4079,-2.4119,-2.404,-2.4039,-2.3972,-2.4029,-2.4211,-2.3937,-2.3934,-2.399,-2.4379,-2.4444,-2.4479,-2.4154,-2.4159,-2.4163,-2.4381,0,-2.4251,-2.4352,-2.4264,-2.4383,-2.4418,-2.4289,-2.4344,-2.4323,-2.4278,-2.4303,-2.4254,-2.4285,-2.4177,-2.4176,-2.4226,-2.4178,-2.4288,-2.4161,-2.4202,-2.4205,-2.4213,-2.4515,-2.4584,-2.4792,-2.4408,-2.4412,-2.4415,0,-2.4523,-2.4521,-2.4643,-2.4587,-2.4598,-2.4649,-2.4647,-2.4672,-2.4645,-2.4609,-2.4607,-2.4525,-2.4584,-2.4462,-2.4543,-2.4459,-2.447,-2.4449,-2.4455,-2.4457,-2.4323,-2.4526,-2.4856,-2.4887,-2.4457,-2.4454,-2.4451,0,-2.4773,-2.4801,-2.4877,-2.487,-2.4808,-2.4846,-2.4822,-2.4789,-2.4798,-2.4796,-2.4801,-2.4808,-2.4812,-2.482,-2.4742,-2.466,-2.4833,-2.4705,-2.4806,-2.4808,-2.4849,-2.4848,-2.5187,-2.4856,-2.4855,-2.4855,-2.4854,0,-2.503,-2.511,-2.4988,-2.5035,-2.512,-2.5019,-2.5107,-2.507,-2.5041,-2.5079,-2.4969,-2.5008,-2.4901,-2.493,-2.4869,-2.4945,-2.4948,-2.4921,-2.4905,-2.4932,-2.4936,-2.4939,-2.4923,-2.4863,-2.4861,-2.486,-2.4858,0,-2.5325,-2.5246,-2.532,-2.5253,-2.5238,-2.5305,-2.5248,-2.529,-2.5237,-2.5287,-2.5293,-2.5211,-2.5239,-2.5161,-2.5177,-2.5136,-2.5247,-2.5206,-2.5256,-2.5244,-2.5349,-2.5341,-2.5703,-2.5745,-2.5387,-2.5391,-2.5393,0,-2.5495,-2.5552,-2.5491,-2.5507,-2.5488,-2.5517,-2.5524,-2.5426,-2.5439,-2.5411,-2.5457,-2.5474,-2.5483,-2.5533,-2.5477,-2.5489,-2.5448,-2.5574,-2.5449,-2.5475,-2.545,-2.5448,-2.5454,-2.56,-2.5605,-2.5608,-2.5611,0,-2.5804,-2.5762,-2.5775,-2.5775,-2.5787,-2.5783,-2.5771,-2.5792,-2.5687,-2.5707,-2.5732,-2.5739,-2.5753,-2.5773,-2.5772,-2.5749,-2.5664,-2.565,-2.5674,-2.5704,-2.573,-2.5718,-2.5327,-2.5643,-2.564,-2.5638,-2.5636,-2.5635,-2.6041,-2.6086,-2.6049,-2.6068,-2.6048,-2.604,-2.6075,-2.6025,-2.6044,-2.6046,-2.5988,-2.6025,-2.5996,-2.5985,-2.5971,-2.6,-2.5942,-2.5977,-2.5986,-2.5997,-2.6014,-2.5725,-2.5999,-2.5998,-2.5997,-2.5997,-2.5996,0,-2.6345,-2.6314,-2.6332,-2.6318,-2.6333,-2.6248,-2.6231,-2.625,-2.6283,-2.6262,-2.6272,-2.6301,-2.6319,-2.6263,-2.6273,-2.6307,-2.6269,-2.6313,-2.6311,-2.6307,-2.6065,-2.6044,-2.6344,-2.6344,-2.6344,-2.6344,-2.6344,-2.6344,-2.6505,-2.6576,-2.6529,-2.659,-2.6558,-2.6592,-2.6589,-2.6582,-2.6564,-2.66,-2.6613,-2.6576,-2.6541,-2.6547,-2.656,-2.6543,-2.6553,-2.6611,-2.6582,-2.6358,-2.6324,-2.6291,-2.627,-2.6614,-2.6614,-2.682,-2.6822,-2.6824]},{"header":{"parameterUnit":"m.s-1","parameterCategory":1,"la1":30.2991,"la2":30.254,"lo1":-89.0895,"lo2":-89.0444,"dy":0.0017,"dx":0.0017,"nx":28,"ny":28,"refTime":"2024-06-21T03:00:00:Z","depth":0,"parameterNumber":3,"parameterNumberName":"V-component_of_WINDS"},"data":[0,0,0,0,0,0,0,0,0,0,0,0,0,0,0,0,0,0,0,0,0,0,0,0,0,0,0,0,0,0,0,0,0,0,0,0,0,0,0,0,0,0,0,0,0,0,0,0,0,0,0,0,0,0,0,0,0,0,-2.3121,-2.3122,0,-2.3249,-2.325,-2.3251,-2.3303,-2.3303,-2.3303,-2.3303,-2.3429,-2.3433,-2.3436,0,0,0,0,0,0,0,0,0,0,0,0,0,-2.2917,-2.292,-2.3121,-2.3122,-2.3124,-2.3248,-2.325,-2.3252,-2.3304,-2.3303,-2.3303,-2.3303,-2.3428,-2.3432,-2.3437,0,0,0,0,0,0,0,0,0,0,0,0,0,-2.3021,-2.2921,-2.312,-2.3165,-2.317,-2.3248,-2.325,-2.3252,-2.3304,-2.3303,-2.3303,-2.3302,-2.3427,-2.3432,-2.3437,-2.3479,0,0,-2.3454,-2.3456,0,0,0,0,0,0,0,0,-2.3015,-2.3028,-2.3157,-2.3162,-2.3168,-2.326,-2.3225,-2.3328,-2.3304,-2.3253,-2.3303,-2.3302,-2.3373,-2.3383,-2.3407,-2.3485,-2.349,-2.3454,-2.3458,-2.346,-2.3461,0,0,0,0,0,0,0,-2.3007,-2.3023,-2.3171,-2.3158,-2.3165,-2.3177,-2.3191,-2.3244,-2.3313,-2.3257,-2.3261,-2.3276,-2.3376,-2.3402,-2.3411,-2.3492,-2.3454,-2.3459,-2.3462,-2.3464,-2.361,-2.361,0,0,0,0,0,0,-2.2994,-2.3017,-2.3167,-2.3175,-2.3089,-2.3181,-2.3197,-2.3231,-2.3313,-2.3325,-2.3276,-2.3278,-2.3393,-2.3404,-2.3415,-2.347,-2.346,-2.3465,-2.3468,-2.3609,-2.361,-2.3611,0,0,0,0,0,0,-2.2989,-2.3007,-2.3162,-2.3097,-2.3118,-2.3185,-2.3222,-2.3233,-2.326,-2.3327,-2.3339,-2.3291,-2.3393,-2.3408,-2.3463,-2.3475,-2.3467,-2.3472,-2.3608,-2.3609,-2.361,-2.3578,0,0,0,0,0,0,-2.2983,-2.3005,-2.3022,-2.3097,-2.3121,-2.3209,-2.3223,-2.3236,-2.327,-2.3273,-2.3344,-2.3356,-2.3394,-2.3455,-2.3468,-2.3482,-2.3477,-2.3608,-2.3609,-2.361,-2.3579,-2.3578,-2.3577,0,0,0,0,0,-2.2976,-2.3008,-2.3023,-2.3041,-2.3145,-2.3209,-2.3223,-2.3268,-2.327,-2.3288,-2.3331,-2.3353,-2.3471,-2.346,-2.3476,-2.3491,-2.3607,-2.3609,-2.361,-2.3579,-2.3578,-2.3578,0,0,0,0,0,0,-2.2931,-2.3018,-2.3036,-2.3094,-2.3144,-2.3218,-2.3242,-2.3265,-2.3315,-2.3316,-2.3368,-2.3383,-2.3434,-2.3468,-2.3454,-2.3536,-2.3541,-2.3545,-2.3512,-2.3512,-2.3511,-2.3502,-2.3481,0,0,0,0,0,-2.2928,-2.2975,-2.3048,-2.3091,-2.3116,-2.3174,-2.3204,-2.3234,-2.3288,-2.3309,-2.3356,-2.3406,-2.3454,-2.3485,-2.3533,-2.3584,-2.3599,-2.3602,-2.3601,-2.3601,-2.3604,-2.3633,-2.3635,-2.3615,-2.3615,-2.3615,0,0,-2.2922,-2.2976,-2.3002,-2.3084,-2.3126,-2.3172,-2.3192,-2.3239,-2.3273,-2.3315,-2.3371,-2.3407,-2.3466,-2.3519,-2.3545,-2.3549,-2.3613,-2.3602,-2.3601,-2.3605,-2.3634,-2.3636,-2.3638,-2.3616,-2.3616,-2.3616,0,0,-2.2935,-2.298,-2.3022,-2.3064,-2.3128,-2.3167,-2.3177,-2.3247,-2.3273,-2.333,-2.3363,-2.3403,-2.3485,-2.3526,-2.3557,-2.3584,-2.3606,-2.3598,-2.3595,-2.3622,-2.3624,-2.3625,-2.3635,-2.3637,-2.3601,-2.3601,-2.3601,0,-2.2919,-2.2991,-2.3039,-2.3086,-2.312,-2.3162,-2.3203,-2.3241,-2.3317,-2.3339,-2.3343,-2.3447,-2.3489,-2.3552,-2.3559,-2.3583,-2.3595,-2.359,-2.362,-2.3622,-2.3624,-2.3634,-2.3637,-2.36,-2.36,-2.36,-2.36,0,-2.2968,-2.3017,-2.3042,-2.3116,-2.3153,-2.3196,-2.325,-2.3282,-2.3308,-2.3346,-2.3402,-2.3455,-2.3514,-2.3531,-2.3557,-2.3597,-2.3598,-2.361,-2.3616,-2.3624,-2.3634,-2.3638,-2.3598,-2.3598,-2.3598,-2.3599,0,0,-2.2957,-2.3057,-2.3065,-2.3099,-2.3173,-2.3211,-2.3255,-2.3314,-2.334,-2.3391,-2.3428,-2.3497,-2.3509,-2.3544,-2.3575,-2.3599,-2.3616,-2.3608,-2.361,-2.3607,-2.3663,-2.3653,-2.3657,-2.3631,-2.3632,-2.3633,-2.3658,0,-2.2979,-2.3062,-2.3107,-2.317,-2.3215,-2.3255,-2.3293,-2.3342,-2.3378,-2.342,-2.3459,-2.3507,-2.3519,-2.3541,-2.3566,-2.3609,-2.3628,-2.3607,-2.3665,-2.3667,-2.365,-2.3662,-2.3652,-2.3674,-2.3662,-2.3663,-2.3663,0,-2.3016,-2.3068,-2.3136,-2.3205,-2.3225,-2.3259,-2.3317,-2.3357,-2.3412,-2.3437,-2.3476,-2.3506,-2.3553,-2.3555,-2.362,-2.3605,-2.3631,-2.3655,-2.3657,-2.3664,-2.3666,-2.3669,-2.3682,-2.3685,-2.367,-2.3669,-2.3669,0,-2.3001,-2.3087,-2.3139,-2.3167,-2.3248,-2.327,-2.3305,-2.336,-2.3392,-2.3442,-2.3463,-2.3517,-2.3547,-2.3587,-2.363,-2.3628,-2.369,-2.3696,-2.3711,-2.371,-2.3722,-2.3721,-2.3739,-2.3739,-2.3739,-2.3739,-2.3739,0,-2.3021,-2.3061,-2.3133,-2.3165,-2.3211,-2.3261,-2.3304,-2.3341,-2.339,-2.3428,-2.3465,-2.35,-2.3556,-2.3598,-2.3632,-2.3679,-2.3692,-2.3712,-2.3721,-2.3709,-2.3707,-2.3727,-2.3727,-2.374,-2.374,-2.3739,-2.3739,0,-2.3011,-2.3061,-2.3121,-2.3193,-2.3211,-2.3242,-2.3303,-2.3334,-2.3372,-2.3421,-2.3435,-2.3494,-2.3545,-2.3592,-2.366,-2.3683,-2.3731,-2.3742,-2.3712,-2.3717,-2.3729,-2.3727,-2.3761,-2.3767,-2.3763,-2.3763,-2.3763,0,-2.3021,-2.3053,-2.3129,-2.3158,-2.3192,-2.3239,-2.3272,-2.3322,-2.3355,-2.342,-2.3444,-2.3498,-2.3543,-2.3623,-2.3671,-2.3722,-2.3735,-2.3743,-2.3743,-2.373,-2.3735,-2.3732,-2.3735,-2.3742,-2.3742,-2.3742,-2.3742,0,-2.3033,-2.3056,-2.3104,-2.316,-2.32,-2.3246,-2.3294,-2.3315,-2.3373,-2.3409,-2.3462,-2.3498,-2.3567,-2.362,-2.3677,-2.3711,-2.3735,-2.3741,-2.3747,-2.3736,-2.3717,-2.3727,-2.371,-2.374,-2.374,-2.374,-2.3741,-2.3741,-2.3033,-2.3063,-2.3121,-2.3173,-2.3214,-2.3258,-2.3291,-2.3333,-2.3379,-2.344,-2.3466,-2.352,-2.3573,-2.3653,-2.3686,-2.3728,-2.3734,-2.3742,-2.3745,-2.3746,-2.3743,-2.3711,-2.3739,-2.3739,-2.3739,-2.3739,-2.3739,0,-2.3046,-2.3085,-2.3133,-2.3199,-2.3239,-2.326,-2.3314,-2.3346,-2.3393,-2.3441,-2.3486,-2.3546,-2.3598,-2.365,-2.3703,-2.3727,-2.3739,-2.3739,-2.3738,-2.3745,-2.3736,-2.3725,-2.3728,-2.3728,-2.3728,-2.3728,-2.3728,-2.3728,-2.3058,-2.311,-2.314,-2.3212,-2.3251,-2.3305,-2.3333,-2.3373,-2.3412,-2.3478,-2.3522,-2.3556,-2.3605,-2.3663,-2.371,-2.3724,-2.3742,-2.3738,-2.3755,-2.3745,-2.3746,-2.3746,-2.3736,-2.3742,-2.3742,-2.3761,-2.3761,-2.3761]}]]